Location: Hokitika
(42.7170°S, 170.9670°E)
Time: 08:45:21
(UTC+13:00)

Cosmos 2219 Rocket - Pass Details

Date: 24 January 2019
Orbit: 829 x 845 km, 71.0° (Epoch: 16 October)

Event Time Altitude Azimuth Distance (km) Brightness Sun altitude
Exits shadow 23:29:30 37° 56° (NE) 1,291 2.7 -20.3°
Maximum altitude 23:30:14 39° 74° (ENE) 1,256 2.7 -20.4°
Drops below altitude 10° 23:35:31 10° 141° (SE) 2,497 4.8 -20.9°
Sets 23:38:07 0° 148° (SSE) 3,441 5.7 -21.2°
